Home > Weather > Karlsruhe > Past weeks

Flag for Germany Weather for the Past 2 Weeks in Karlsruhe, Baden-Württemberg, Germany

Now
54 °F

Scattered clouds.


Feels Like: 51 °F
Forecast: 37 / 58 °F
Wind: 8 mph from Southwest

Location: Karlsruhe - Baden Wurttemberg

Current Time: May 3, 2016 at 10:48:59 AM

Latest Report: May 3, 2016 at 9:50 AM


Visibility: N/A

Pressure: 30.15 "Hg

Humidity: 77%

Dew Point: 46 °F

Location of KarlsruheLocation

Historic Weather in Karlsruhe — Graph

°F

Karlsruhe Temperature Yesterday

Maximum temperature yesterday: 66 °F (at 4:20 PM)
Minimum temperature yesterday: 39 °F (at 4:50 AM)
Average temperature yesterday: 55 °F

High & Low Weather Summary for the Past Weeks

 TemperatureHumidityPressure
High70 °F (Apr 21, 3:50 PM)100% (Apr 19, 4:50 AM)30.39 "Hg (Apr 19, 4:50 AM)
Low30 °F (Apr 29, 5:20 AM)33% (Apr 21, 4:20 PM)29.59 "Hg (Apr 26, 5:50 AM)
Average49 °F73%30.03 "Hg
* Reported Apr 18 9:20 AM — May 3 9:20 AM, Karlsruhe, Weather by CustomWeather, © 2016

Note: Actual official high and low records may vary slightly from our data, if they occured in-between our weather recording intervals... More about our weather records

Advertising

Karlsruhe Weather History for the Previous 24 Hours

Scroll right to see more
 ConditionsComfort  
Time TempWeatherWind HumidityBarometerVisibility
9:20 AM
Tue, May 3
54 °FPartly sunny.N/A77%30.12 "HgN/A
8:50 AM54 °FSunny.8 mph77%30.12 "Hg10 mi
8:20 AM52 °FSunny.6 mph77%30.12 "Hg10 mi
7:50 AM50 °FSunny.3 mph82%30.12 "Hg10 mi
7:20 AM46 °FSunny.3 mph87%30.12 "Hg10 mi
6:50 AM46 °FClear.3 mph87%30.12 "Hg10 mi
6:20 AM50 °FClear.5 mph76%30.12 "Hg10 mi
5:50 AM50 °FClear.6 mph76%30.12 "Hg10 mi
5:20 AM50 °FClear.8 mph76%30.09 "Hg10 mi
4:50 AM50 °FPassing clouds.6 mph76%30.09 "HgN/A
4:20 AM48 °FClear.6 mph82%30.09 "Hg10 mi
11:50 PM
Mon, May 2
46 °FClear.1 mph87%30.12 "Hg10 mi
11:20 PM46 °FClear.1 mph87%30.12 "Hg10 mi
10:50 PM50 °FPassing clouds.5 mph76%30.12 "HgN/A
10:20 PM50 °FClear.2 mph76%30.09 "Hg10 mi
9:50 PM52 °FClear.2 mph72%30.09 "Hg10 mi
9:20 PM55 °FSunny.1 mph67%30.09 "Hg10 mi
8:50 PM55 °FSunny.2 mph67%30.09 "Hg10 mi
8:20 PM63 °FSunny.2 mph45%30.09 "Hg10 mi
7:50 PM64 °FSunny.3 mph46%30.09 "Hg10 mi
7:20 PM64 °FSunny.5 mph43%30.09 "Hg10 mi
6:50 PM66 °FSunny.5 mph43%30.09 "Hg10 mi
6:20 PM66 °FSunny.7 mph40%30.09 "Hg10 mi
5:50 PM66 °FSunny.7 mph37%30.12 "Hg10 mi
5:20 PM66 °FSunny.6 mph46%30.12 "Hg10 mi
4:50 PM66 °FSunny.7 mph43%30.12 "Hg10 mi
4:20 PM66 °FSunny.6 mph40%30.12 "Hg10 mi
3:50 PM64 °FSunny.7 mph43%30.15 "Hg10 mi
3:20 PM64 °FSunny.8 mph46%30.15 "Hg10 mi
2:50 PM64 °FSunny.10 mph43%30.15 "Hg10 mi
2:20 PM64 °FSunny.13 mph40%30.15 "Hg10 mi
1:50 PM64 °FPassing clouds.10 mph43%30.18 "HgN/A
1:20 PM63 °FPassing clouds.12 mph49%30.18 "HgN/A
12:50 PM61 °FPassing clouds.10 mph55%30.18 "HgN/A
12:20 PM61 °FPassing clouds.12 mph59%30.21 "HgN/A
11:50 AM59 °FPassing clouds.12 mph63%30.21 "HgN/A
11:20 AM57 °FSunny.13 mph63%30.21 "Hg10 mi
10:50 AM57 °FSunny.12 mph63%30.21 "Hg10 mi
10:20 AM55 °FSunny.13 mph67%30.21 "Hg10 mi
Weather by CustomWeather, © 2016

See weather overviewHow to use our weather pages